User: anonymous   Login
Location: Unspecified
(0.0000°N, 0.0000°E)
Time: 20:52:04
(UTC+00:00)
Language:

N. Korean satellite - Orbit

View from above orbital plane
View from above orbital plane
View from above satellite
View from above satellite

Ground track
Ground track

The orbit data is extracted from the following two-line orbital elements,

1 39026U 12072A   18051.08546641  .00001666  00000-0  65370-4 0  9995
2 39026  97.2146  65.4394 0040231  21.0676 339.2209 15.26374624287795
Epoch (UTC): 20 February 2018 02:03:04
Eccentricity: 0.0040231
inclination: 97.2146°
perigee height: 459 km
apogee height: 514 km
right ascension of ascending node: 65.4394°
argument of perigee: 21.0676°
revolutions per day: 15.26374624
mean anomaly at epoch: 339.2209°
orbit number at epoch: 28779

The dashed part of the orbit path shows where the satellite is in the earth's shadow,  

DLR